SCP
0 0 0 0 0 0 0 0 0 0 0 0 0 0 0 0 0 0 0 0 0 0 0 0 0 0 0 0 0 0 0 0 0 0 0 0 0 0
0 0 0 0 0 0 0 0 0 0 0 0 0 0 0 0 0 0 0 0 0 0 -0 -0 0 0 0 0 0 0 0 0 0 0 0 0 0 0
0 0 0 0 0 0 0 0 0 0 0 0 0 0 0 0 0 0 0 0 0 -0 -0 0 0 0 0 0 0 0 0 0 0 0 0 0 0 0
0 0 0 0 0 0 0 0 0 0 0 0 0 0 0 0 0 0 0 0 0 0 0 -0 0 0 0 0 0 0 0 0 0 0 0 0 0 0
0 0 0 0 0 0 0 0 0 0 0 0 0 0 0 0 0 0 0 0 0 0 0 0 0 0 0 0 0 0 0 0 0 0 0 0 0 0
0 0 0 0 0 0 0 0 0 0 0 0 0 0 0 0 0 0 0 0 0 0 0 0 0 0 0 0 0 0 0 0 0 0 0 0 0 0
0 0 0 0 0 0 0 0 0 0 0 0 0 0 0 0 0 0 0 0 0 0 0 0 0 0 0 0 0 0 0 0 0 0 0 0 0 0
0 0 0 0 0 0 0 0 0 0 0 0 0 0 0 0 0 0 0 0 0 0 0 0 0 0 0 0 0 0 0 0 0 0 0 0 0 0
0 0 0 0 0 0 0 0 0 0 0 0 0 0 0 0 0 0 0 0 0 0 0 0 0 0 0 0 0 0 0 0 0 0 0 0 0 0
0 0 0 0 0 0 0 0 0 0 0 0 0 0 0 0 0 0 0 0 0 0 0 0 0 0 0 0 -0 0 0 0 0 0 0 0 -0 -0
0 0 0 0 0 0 0 0 0 0 0 0 0 0 0 0 0 0 0 0 0 0 0 0 0 0 0 0 0 0 0 0 0 0 0 -0 -0 -0
0 0 0 0 0 0 0 0 0 0 0 0 0 0 0 0 0 0 0 0 0 0 0 0 0 0 0 0 0 0 0 0 0 0 -0 -0 -0 0
0 0 0 0 0 0 0 0 0 0 0 0 0 0 0 0 0 0 0 0 0 0 0 0 0 0 0 0 0 0 0 0 0 0 -0 -0 -0 -0
0 0 0 0 0 0 0 0 0 0 0 0 0 0 0 0 0 0 0 0 0 0 0 0 0 0 0 0 0 0 0 0 0 0 0 -0 -0 -0
0 0 0 0 0 0 0 0 0 0 0 0 0 0 0 0 0 0 0 0 0 0 0 0 0 0 0 0 0 0 0 0 0 0 0 0 0 -0
0 0 0 0 0 0 0 0 0 0 0 0 0 0 0 0 0 0 0 0 0 0 0 0 0 0 0 0 0 0 0 0 -0 0 0 0 0 -0
0 0 0 0 0 0 0 0 0 0 0 0 0 0 0 0 0 0 0 0 0 0 0 0 0 0 0 0 0 0 0 0 0 0 0 0 -0 -0
0 0 0 0 0 0 0 0 0 0 0 0 0 0 0 0 0 0 0 0 0 0 0 0 0 0 0 0 0 0 0 0 -0 -0 0 0 -0 -0
0 0 0 0 0 0 0 0 0 0 0 0 0 0 0 0 0 0 0 0 0 0 0 0 0 0 0 0 0 0 0 -0 -0 -0 0 0 0 0
0 0 0 0 0 0 0 0 0 0 0 0 0 0 0 0 0 0 0 0 0 0 0 0 0 0 0 0 0 0 -0 -0 -0 -0 -0 -0 0 -0
0 0 0 0 0 0 0 0 0 0 0 0 0 0 0 0 0 0 0 0 0 0 0 0 0 0 0 0 0 0 0 -0 -0 -0 -0 -0 -0 0
0 0 0 0 0 0 0 0 0 0 0 0 0 0 0 0 0 0 0 0 0 0 0 0 0 0 0 0 0 0 0 -0 -0 -0 -0 -0 0 0
0 0 0 0 0 0 0 0 0 0 0 0 0 0 0 0 0 0 0 0 0 0 0 0 0 0 0 0 0 0 0 0 0 0 0 -0 -0 -0
Wind_Speed_500mb
18 19 20 21 22 25 29 33 35 31 40 35 51 58 59 55 55 57 60 63 66 65 64 65 63 58 65 66 68 68 71 72 73 78 76 77 79 82
18 20 21 23 24 28 30 34 36 36 30 49 56 58 59 58 59 62 64 65 66 67 67 62 66 62 67 72 69 72 73 74 76 79 79 82 84 83
20 21 22 24 26 30 32 35 38 42 48 57 56 59 61 62 62 63 66 67 70 73 73 70 68 75 78 78 76 75 75 76 78 78 82 87 88 86
22 23 24 26 28 32 33 35 37 43 52 60 63 62 61 63 65 69 70 71 74 77 73 70 77 81 83 80 80 79 79 79 78 82 86 89 90 88
26 27 27 29 31 33 35 37 38 42 48 58 65 63 63 66 69 73 76 78 75 82 77 76 85 87 83 81 83 85 88 79 82 84 84 87 91 97
32 32 32 33 34 36 37 38 42 46 50 55 61 62 64 66 72 80 84 81 82 82 79 84 90 91 80 89 86 86 87 83 80 82 88 94 94 96
38 37 37 37 39 38 38 41 45 47 52 55 58 61 64 69 74 78 84 90 89 93 91 95 103 90 94 97 94 88 81 77 80 91 94 95 96 96
44 43 42 42 41 40 40 43 45 48 52 52 53 56 60 65 71 75 81 88 101 87 104 107 99 94 108 105 99 86 74 76 92 89 94 92 96 98
51 49 49 46 44 41 41 43 43 46 51 50 48 50 59 63 68 72 74 77 81 93 95 112 97 117 109 113 94 99 75 90 90 93 91 96 96 100
55 54 54 51 47 45 44 45 43 45 46 49 50 51 54 58 61 67 72 78 82 80 85 93 110 119 120 118 100 108 103 94 93 92 94 95 101 102
59 59 57 55 51 49 49 48 44 45 46 48 49 51 54 55 58 66 67 76 89 86 70 82 103 120 129 108 113 113 107 105 102 94 96 105 104 107
65 64 61 59 53 53 52 50 47 46 49 46 47 50 54 56 56 58 61 67 69 86 67 89 90 91 112 118 123 119 115 108 100 97 102 111 105 121
69 69 64 60 58 56 51 51 47 52 49 49 52 55 56 57 54 52 53 55 60 64 65 66 84 86 73 105 126 114 114 111 101 105 109 116 113 127
72 69 64 61 57 55 52 55 49 55 49 52 56 56 57 56 52 51 52 52 48 57 59 58 73 75 82 101 102 113 106 106 99 113 121 122 125 147
77 68 63 62 59 55 48 53 55 52 51 54 57 56 57 56 55 56 52 54 49 44 49 53 64 70 72 81 91 93 107 107 102 110 122 124 140 148
71 74 67 63 60 63 60 56 56 52 53 55 56 55 56 54 54 56 59 58 60 52 43 48 56 64 76 70 63 76 89 84 106 102 119 119 133 145
67 72 74 74 69 67 61 57 55 54 53 54 55 56 55 55 53 53 53 54 53 60 61 55 56 60 63 64 57 73 87 90 88 97 113 119 129 141
71 78 81 80 75 69 62 58 55 53 51 52 53 55 53 54 54 50 49 48 50 51 55 58 66 73 71 72 54 74 79 84 83 90 100 117 128 133
65 76 75 78 75 68 62 56 52 49 50 49 51 51 52 52 51 48 47 45 44 44 43 48 55 61 69 76 66 61 72 75 81 90 88 100 102 107
72 82 73 67 56 56 54 51 48 47 47 48 49 49 50 51 48 44 41 41 40 40 40 39 44 48 52 58 64 63 46 59 64 79 88 88 84 94
74 82 81 70 62 60 58 52 46 45 44 47 47 46 46 46 42 38 35 33 34 36 37 37 38 38 40 44 50 55 35 24 39 61 83 73 79 96
88 77 77 80 72 63 58 50 46 44 43 43 41 40 39 37 34 29 28 25 27 29 31 33 33 34 36 40 45 46 39 26 20 42 49 62 68 69
89 85 79 77 72 63 56 46 47 42 35 36 33 32 30 27 26 22 20 21 23 23 28 32 30 28 30 33 37 36 31 28 27 31 41 46 60 57
Wind_Direction_500mb
339 335 336 332 332 332 336 337 336 332 326 331 331 334 333 334 331 332 337 339 338 337 339 337 338 332 330 327 326 323 322 320 317 315 314 314 313 310
327 324 324 324 324 327 327 328 326 324 317 324 331 331 332 333 335 337 338 340 340 340 344 343 338 329 331 329 326 323 321 320 315 315 313 312 310 307
311 309 311 315 318 319 322 323 323 324 322 324 330 331 331 332 332 334 337 341 342 343 346 342 338 335 334 331 328 324 321 318 315 314 312 309 307 304
293 296 302 305 310 313 317 317 320 322 323 325 330 329 327 327 330 333 338 344 342 340 342 341 336 335 335 333 331 328 321 317 316 314 311 308 305 302
286 290 293 297 303 306 310 312 317 320 321 323 324 324 326 328 330 335 339 340 341 338 339 338 335 334 332 333 334 331 322 319 317 314 310 307 304 301
282 286 289 294 297 302 308 311 317 320 321 320 318 322 326 330 333 336 335 336 338 338 335 337 330 332 336 336 338 329 324 321 318 314 310 308 305 302
279 282 286 289 292 296 305 312 316 316 316 318 320 324 327 329 333 335 332 332 336 338 333 333 331 334 338 337 340 334 324 322 318 314 312 309 306 303
278 280 282 284 287 294 302 308 308 311 314 317 320 321 324 327 330 331 330 333 334 339 330 328 334 334 338 336 341 335 327 323 319 318 313 312 308 304
276 278 278 280 282 289 292 297 300 306 310 314 317 320 322 325 326 325 328 327 326 331 328 327 334 331 334 334 343 340 330 325 323 319 317 315 311 308
275 276 276 278 279 280 284 288 294 299 304 309 316 318 321 324 322 320 322 320 320 329 335 325 331 329 331 334 345 340 339 333 329 324 322 320 317 314
276 274 274 275 276 276 280 282 289 297 300 305 311 315 317 317 316 316 319 325 325 331 339 328 330 329 330 334 341 339 341 341 341 338 337 334 330 327
277 274 274 275 271 274 274 279 285 291 296 303 306 309 313 314 314 316 320 323 326 329 339 328 328 335 329 330 336 340 340 344 342 344 341 342 342 336
277 276 275 273 270 271 271 275 283 286 295 301 306 308 310 310 310 313 314 319 323 319 333 327 323 329 326 325 332 339 340 343 346 346 345 346 346 338
278 277 276 269 264 263 262 270 275 286 292 297 301 305 309 308 310 313 316 318 322 321 326 326 319 328 329 328 327 336 340 345 349 349 347 351 349 348
279 279 273 264 258 255 251 267 272 281 286 293 298 304 307 309 313 314 315 314 318 323 323 324 322 326 329 330 327 336 341 345 353 351 351 355 351 344
269 270 269 265 257 254 255 261 272 276 283 289 297 303 305 308 310 313 316 318 321 327 330 329 327 331 334 341 335 340 348 341 350 355 355 360 357 351
268 261 256 254 255 255 255 262 268 272 280 288 297 300 302 304 308 312 313 316 321 326 332 336 335 338 340 349 346 353 349 351 355 357 2 3 -0 358
258 254 253 255 255 256 258 263 265 270 278 287 293 295 298 302 308 312 312 315 319 327 333 339 340 342 346 353 3 353 350 349 359 2 8 3 359 8
251 259 255 255 256 258 257 259 262 269 279 287 292 294 298 302 306 310 311 313 318 326 335 342 346 348 348 346 352 9 344 353 360 6 12 15 2 10
248 253 259 260 258 255 255 261 262 269 278 288 292 294 297 301 304 308 308 311 318 326 334 345 347 349 347 340 333 353 7 354 360 9 19 20 25 39
254 252 258 259 256 258 258 264 264 269 279 285 288 292 295 298 304 305 306 310 318 325 331 343 348 344 332 333 342 352 11 17 16 28 25 20 29 38
261 261 257 254 255 257 257 261 263 267 277 281 286 290 292 297 301 302 301 307 314 322 328 339 341 338 335 345 350 351 352 17 50 39 41 45 36 36
260 263 259 253 251 257 255 256 257 267 275 277 282 284 290 295 296 298 301 310 315 319 327 337 343 341 341 351 355 355 346 356 6 23 40 49 59 68
Wind_Speed_850mb
18 19 20 21 22 25 29 33 35 31 40 35 51 58 59 55 55 57 60 63 66 65 64 65 63 58 65 66 68 68 71 72 73 78 76 77 79 82
18 20 21 23 24 28 30 34 36 36 30 49 56 58 59 58 59 62 64 65 66 67 67 62 66 62 67 72 69 72 73 74 76 79 79 82 84 83
20 21 22 24 26 30 32 35 38 42 48 57 56 59 61 62 62 63 66 67 70 73 73 70 68 75 78 78 76 75 75 76 78 78 82 87 88 86
22 23 24 26 28 32 33 35 37 43 52 60 63 62 61 63 65 69 70 71 74 77 73 70 77 81 83 80 80 79 79 79 78 82 86 89 90 88
26 27 27 29 31 33 35 37 38 42 48 58 65 63 63 66 69 73 76 78 75 82 77 76 85 87 83 81 83 85 88 79 82 84 84 87 91 97
32 32 32 33 34 36 37 38 42 46 50 55 61 62 64 66 72 80 84 81 82 82 79 84 90 91 80 89 86 86 87 83 80 82 88 94 94 96
38 37 37 37 39 38 38 41 45 47 52 55 58 61 64 69 74 78 84 90 89 93 91 95 103 90 94 97 94 88 81 77 80 91 94 95 96 96
44 43 42 42 41 40 40 43 45 48 52 52 53 56 60 65 71 75 81 88 101 87 104 107 99 94 108 105 99 86 74 76 92 89 94 92 96 98
51 49 49 46 44 41 41 43 43 46 51 50 48 50 59 63 68 72 74 77 81 93 95 112 97 117 109 113 94 99 75 90 90 93 91 96 96 100
55 54 54 51 47 45 44 45 43 45 46 49 50 51 54 58 61 67 72 78 82 80 85 93 110 119 120 118 100 108 103 94 93 92 94 95 101 102
59 59 57 55 51 49 49 48 44 45 46 48 49 51 54 55 58 66 67 76 89 86 70 82 103 120 129 108 113 113 107 105 102 94 96 105 104 107
65 64 61 59 53 53 52 50 47 46 49 46 47 50 54 56 56 58 61 67 69 86 67 89 90 91 112 118 123 119 115 108 100 97 102 111 105 121
69 69 64 60 58 56 51 51 47 52 49 49 52 55 56 57 54 52 53 55 60 64 65 66 84 86 73 105 126 114 114 111 101 105 109 116 113 127
72 69 64 61 57 55 52 55 49 55 49 52 56 56 57 56 52 51 52 52 48 57 59 58 73 75 82 101 102 113 106 106 99 113 121 122 125 147
77 68 63 62 59 55 48 53 55 52 51 54 57 56 57 56 55 56 52 54 49 44 49 53 64 70 72 81 91 93 107 107 102 110 122 124 140 148
71 74 67 63 60 63 60 56 56 52 53 55 56 55 56 54 54 56 59 58 60 52 43 48 56 64 76 70 63 76 89 84 106 102 119 119 133 145
67 72 74 74 69 67 61 57 55 54 53 54 55 56 55 55 53 53 53 54 53 60 61 55 56 60 63 64 57 73 87 90 88 97 113 119 129 141
71 78 81 80 75 69 62 58 55 53 51 52 53 55 53 54 54 50 49 48 50 51 55 58 66 73 71 72 54 74 79 84 83 90 100 117 128 133
65 76 75 78 75 68 62 56 52 49 50 49 51 51 52 52 51 48 47 45 44 44 43 48 55 61 69 76 66 61 72 75 81 90 88 100 102 107
72 82 73 67 56 56 54 51 48 47 47 48 49 49 50 51 48 44 41 41 40 40 40 39 44 48 52 58 64 63 46 59 64 79 88 88 84 94
74 82 81 70 62 60 58 52 46 45 44 47 47 46 46 46 42 38 35 33 34 36 37 37 38 38 40 44 50 55 35 24 39 61 83 73 79 96
88 77 77 80 72 63 58 50 46 44 43 43 41 40 39 37 34 29 28 25 27 29 31 33 33 34 36 40 45 46 39 26 20 42 49 62 68 69
89 85 79 77 72 63 56 46 47 42 35 36 33 32 30 27 26 22 20 21 23 23 28 32 30 28 30 33 37 36 31 28 27 31 41 46 60 57
Wind_Direction_850mb
339 335 336 332 332 332 336 337 336 332 326 331 331 334 333 334 331 332 337 339 338 337 339 337 338 332 330 327 326 323 322 320 317 315 314 314 313 310
327 324 324 324 324 327 327 328 326 324 317 324 331 331 332 333 335 337 338 340 340 340 344 343 338 329 331 329 326 323 321 320 315 315 313 312 310 307
311 309 311 315 318 319 322 323 323 324 322 324 330 331 331 332 332 334 337 341 342 343 346 342 338 335 334 331 328 324 321 318 315 314 312 309 307 304
293 296 302 305 310 313 317 317 320 322 323 325 330 329 327 327 330 333 338 344 342 340 342 341 336 335 335 333 331 328 321 317 316 314 311 308 305 302
286 290 293 297 303 306 310 312 317 320 321 323 324 324 326 328 330 335 339 340 341 338 339 338 335 334 332 333 334 331 322 319 317 314 310 307 304 301
282 286 289 294 297 302 308 311 317 320 321 320 318 322 326 330 333 336 335 336 338 338 335 337 330 332 336 336 338 329 324 321 318 314 310 308 305 302
279 282 286 289 292 296 305 312 316 316 316 318 320 324 327 329 333 335 332 332 336 338 333 333 331 334 338 337 340 334 324 322 318 314 312 309 306 303
278 280 282 284 287 294 302 308 308 311 314 317 320 321 324 327 330 331 330 333 334 339 330 328 334 334 338 336 341 335 327 323 319 318 313 312 308 304
276 278 278 280 282 289 292 297 300 306 310 314 317 320 322 325 326 325 328 327 326 331 328 327 334 331 334 334 343 340 330 325 323 319 317 315 311 308
275 276 276 278 279 280 284 288 294 299 304 309 316 318 321 324 322 320 322 320 320 329 335 325 331 329 331 334 345 340 339 333 329 324 322 320 317 314
276 274 274 275 276 276 280 282 289 297 300 305 311 315 317 317 316 316 319 325 325 331 339 328 330 329 330 334 341 339 341 341 341 338 337 334 330 327
277 274 274 275 271 274 274 279 285 291 296 303 306 309 313 314 314 316 320 323 326 329 339 328 328 335 329 330 336 340 340 344 342 344 341 342 342 336
277 276 275 273 270 271 271 275 283 286 295 301 306 308 310 310 310 313 314 319 323 319 333 327 323 329 326 325 332 339 340 343 346 346 345 346 346 338
278 277 276 269 264 263 262 270 275 286 292 297 301 305 309 308 310 313 316 318 322 321 326 326 319 328 329 328 327 336 340 345 349 349 347 351 349 348
279 279 273 264 258 255 251 267 272 281 286 293 298 304 307 309 313 314 315 314 318 323 323 324 322 326 329 330 327 336 341 345 353 351 351 355 351 344
269 270 269 265 257 254 255 261 272 276 283 289 297 303 305 308 310 313 316 318 321 327 330 329 327 331 334 341 335 340 348 341 350 355 355 360 357 351
268 261 256 254 255 255 255 262 268 272 280 288 297 300 302 304 308 312 313 316 321 326 332 336 335 338 340 349 346 353 349 351 355 357 2 3 -0 358
258 254 253 255 255 256 258 263 265 270 278 287 293 295 298 302 308 312 312 315 319 327 333 339 340 342 346 353 3 353 350 349 359 2 8 3 359 8
251 259 255 255 256 258 257 259 262 269 279 287 292 294 298 302 306 310 311 313 318 326 335 342 346 348 348 346 352 9 344 353 360 6 12 15 2 10
248 253 259 260 258 255 255 261 262 269 278 288 292 294 297 301 304 308 308 311 318 326 334 345 347 349 347 340 333 353 7 354 360 9 19 20 25 39
254 252 258 259 256 258 258 264 264 269 279 285 288 292 295 298 304 305 306 310 318 325 331 343 348 344 332 333 342 352 11 17 16 28 25 20 29 38
261 261 257 254 255 257 257 261 263 267 277 281 286 290 292 297 301 302 301 307 314 322 328 339 341 338 335 345 350 351 352 17 50 39 41 45 36 36
260 263 259 253 251 257 255 256 257 267 275 277 282 284 290 295 296 298 301 310 315 319 327 337 343 341 341 351 355 355 346 356 6 23 40 49 59 68